This demonstration page uses our WeatherBlox Daily Observations layout. Learn more.

Left ArrowRight Arrow

Hourly Observations for June 25, 2016

Temp ( °F °C ) Dew Point ( °F °C ) Humidity (%) Winds ( mph kmh ) Pressure ( in mb ) Visibility ( mi km ) Precip ( " mm )
12:53 am 00:53 Clear 76 24.4 41 5 29 29 N 7 11 29.96 1015 10 16 0.00 0.00
1:53 am 01:53 Clear 76 24.4 39 3.9 26 26 NNW 8 13 29.95 1014 10 16 0.00 0.00
2:53 am 02:53 Clear 73 22.8 41 5 32 32 NNW 7 11 29.94 1014 10 16 0.00 0.00
3:53 am 03:53 Clear 71 21.7 42 5.6 35 35 NW 6 9 29.95 1014 10 16 0.00 0.00
4:53 am 04:53 Clear 71 21.7 42 5.6 35 35 NNW 8 13 29.95 1014 10 16 0.00 0.00
5:53 am 05:53 Sunny 69 20.6 42 5.6 38 38 NW 6 9 29.96 1015 10 16 0.00 0.00
6:53 am 06:53 Sunny 72 22.2 44 6.7 37 37 NW 6 9 29.96 1015 10 16 0.00 0.00
7:53 am 07:53 Sunny 77 25 42 5.6 29 29 N 13 20 29.95 1014 10 16 0.00 0.00
8:53 am 08:53 Sunny 80 26.7 42 5.6 26 26 N 13 20 29.95 1014 10 16 0.00 0.00
9:53 am 09:53 Sunny 83 28.3 42 5.6 24 24 N 15 24 29.94 1014 10 16 0.00 0.00
10:53 am 10:53 Sunny 87 30.6 44 6.7 22 22 N 13 20 29.92 1013 10 16 0.00 0.00
11:53 am 11:53 Sunny 90 32.2 44 6.7 20 20 N 10 17 29.91 1013 10 16 0.00 0.00
12:53 pm 12:53 Sunny 94 34.4 41 5 16 16 N 10 17 29.89 1012 10 16 0.00 0.00
1:53 pm 13:53 Sunny 96 35.6 41 5 15 15 WNW 8 13 29.88 1012 10 16 0.00 0.00
2:53 pm 14:53 Sunny 97 36.1 32 0 10 10 VRB 6 9 29.86 1011 10 16 0.00 0.00
3:53 pm 15:53 Sunny 99 37.2 22 -5.6 6 6 NNW 7 11 29.84 1011 10 16 0.00 0.00
4:53 pm 16:53 Sunny 100 37.8 20 -6.7 5 5 VRB 3 6 29.83 1010 10 16 0.00 0.00
5:53 pm 17:53 Sunny 101 38.3 19 -7.2 5 5 NE 7 11 29.81 1010 10 16 0.00 0.00
6:53 pm 18:53 Sunny 99 37.2 25 -3.9 7 7 E 5 7 29.80 1009 10 16 0.00 0.00
7:53 pm 19:53 Sunny 95 35 38 3.3 14 14 Calm 29.81 1010 10 16 0.00 0.00
8:53 pm 20:53 Clear 84 28.9 44 6.7 25 25 Calm 29.82 1010 10 16 0.00 0.00
9:53 pm 21:53 Clear 83 28.3 45 7.2 26 26 NW 6 9 29.84 1011 10 16 0.00 0.00
10:53 pm 22:53 Clear 80 26.7 47 8.3 31 31 N 5 7 29.86 1011 10 16 0.00 0.00
11:53 pm 23:53 Clear 73 22.8 51 10.6 46 46 Calm 29.88 1012 10 16 0.00 0.00

Powered by AerisWeather